period_start,C,m1,H,J0,J1,J2,J3,J4,J5,JA,JB,JC,JD,JJ,JK,JN,#
2014-07-01 00:04:54,-0.00,0.19,0.00,23.78,28.45,30.88,9.42,37.15,1011.24,2035.00,3410.97,3269.99,3548.25,500.15,492.82,32.55,0000 0000 0000 0000 000000
2014-07-01 00:09:56,-0.01,0.19,0.00,23.81,28.43,30.84,9.47,37.23,1011.24,2035.01,3410.98,3269.99,3548.71,500.01,492.79,32.59,0000 0000 0000 0000 000000
2014-07-01 00:14:57,0.00,0.19,0.00,23.85,28.42,30.80,9.49,37.24,1011.25,2035.05,3410.99,3270.02,3548.96,499.86,492.57,32.63,0000 0000 0000 0000 000000
2014-07-01 00:19:58,0.02,0.19,0.00,23.89,28.40,30.78,9.52,37.17,1011.26,2035.25,3410.99,3270.06,3548.99,499.98,492.61,32.67,0000 0000 0000 0000 000000
2014-07-01 00:24:59,0.01,0.19,0.00,23.92,28.40,30.75,9.59,37.17,1011.26,2035.34,3411.00,3270.15,3548.99,500.68,493.06,32.72,0000 0000 0000 0000 000000
2014-07-01 00:30:00,-0.01,0.19,0.00,23.94,28.39,30.73,9.42,37.25,1011.27,2035.33,3411.02,3270.19,3548.99,499.75,492.13,32.76,0000 0000 0000 0000 000000
2014-07-01 00:35:01,-0.00,0.19,0.00,23.95,28.37,30.73,9.44,37.23,1011.31,2035.31,3411.07,3270.39,3548.99,499.88,492.37,32.80,0000 0000 0000 0000 000000
2014-07-01 00:40:02,0.02,0.19,0.00,23.95,28.37,30.73,9.58,37.24,1011.37,2035.63,3411.23,3270.78,3549.00,500.43,492.74,32.84,0000 0000 0000 0000 000000
2014-07-01 00:45:03,0.01,0.19,0.00,23.94,28.37,30.73,9.45,37.16,1011.35,2035.83,3411.42,3270.91,3549.03,499.95,492.37,32.88,0000 0000 0000 0000 000000
2014-07-01 00:50:04,0.02,0.19,0.00,23.95,28.37,30.74,9.49,37.08,1011.36,2035.75,3411.17,3270.76,3549.00,499.89,492.44,32.92,0000 0000 0000 0000 000000
2014-07-01 00:55:05,-0.01,0.19,0.00,23.95,28.37,30.74,9.49,37.17,1011.41,2035.84,3411.30,3270.88,3549.01,500.00,492.61,32.97,0000 0000 0000 0000 000000
2014-07-01 01:00:06,0.02,0.19,0.00,23.94,28.35,30.75,9.48,37.12,1011.38,2035.87,3411.23,3270.67,3549.01,499.96,492.40,33.01,0000 0000 0000 0000 000000
2014-07-01 01:05:07,0.01,0.19,0.00,23.91,28.35,30.74,9.59,37.18,1011.45,2035.92,3410.90,3270.36,3548.94,500.08,492.71,33.05,0000 0000 0000 0000 000000
2014-07-01 01:10:08,0.04,0.19,0.00,23.90,28.35,30.75,9.45,37.26,1011.56,2035.94,3410.04,3270.00,3548.15,499.48,492.07,33.09,0000 0000 0000 0000 000000
2014-07-01 01:15:09,-0.00,0.19,0.00,23.90,28.35,30.75,9.39,37.23,1011.65,2035.94,3409.98,3269.98,3548.07,499.52,492.34,33.13,0000 0000 0000 0000 000000
2014-07-01 01:20:10,0.00,0.19,0.00,23.87,28.35,30.75,9.67,37.34,1011.67,2035.98,3409.98,3269.99,3548.07,500.96,493.63,33.17,0000 0000 0000 0000 000000
2014-07-01 01:25:11,0.00,0.19,0.00,23.80,28.35,30.75,9.53,37.37,1011.69,2035.97,3409.95,3269.98,3548.04,499.91,492.91,33.21,0000 0000 0000 0000 000000
2014-07-01 01:30:12,-0.00,0.19,0.00,23.72,28.33,30.77,9.55,37.38,1011.63,2035.97,3409.95,3269.99,3548.03,500.25,493.23,33.26,0000 0000 0000 0000 000000
2014-07-01 01:35:13,0.00,0.19,0.00,23.66,28.32,30.78,9.48,37.40,1011.67,2035.98,3409.98,3269.99,3548.07,500.46,493.75,33.30,0000 0000 0000 0000 000000
2014-07-01 01:40:14,-0.00,0.19,0.00,23.64,28.31,30.78,9.48,37.29,1011.57,2035.98,3409.98,3269.99,3548.15,499.84,492.85,33.34,0000 0000 0000 0000 000000
2014-07-01 01:45:15,-0.00,0.19,0.00,23.60,28.30,30.76,9.36,37.25,1011.52,2035.98,3409.99,3269.99,3548.35,499.49,492.58,33.38,0000 0000 0000 0000 000000
2014-07-01 01:50:16,0.00,0.19,0.00,23.57,28.28,30.77,9.56,37.24,1011.66,2035.99,3409.99,3270.00,3548.83,500.40,493.55,33.42,0000 0000 0000 0000 000000
2014-07-01 01:55:18,-0.00,0.19,0.00,23.54,28.26,30.76,9.56,37.21,1011.61,2035.99,3410.01,3270.10,3548.97,500.16,493.48,33.46,0000 0000 0000 0000 000000
2014-07-01 02:00:18,-0.01,0.19,0.00,23.50,28.25,30.75,9.57,37.27,1011.65,2035.99,3410.01,3270.34,3548.99,500.32,493.83,33.51,0000 0000 0000 0000 000000
2014-07-01 02:05:20,-0.01,0.19,0.00,23.47,28.22,30.71,9.52,37.28,1011.66,2036.01,3410.15,3270.93,3549.01,500.30,493.69,33.55,0000 0000 0000 0000 000000
2014-07-01 02:10:20,-0.00,0.19,0.00,23.45,28.20,30.70,9.52,37.26,1011.71,2036.04,3410.25,3270.99,3549.03,499.81,493.45,33.59,0000 0000 0000 0000 000000
2014-07-01 02:15:21,0.00,0.19,0.00,23.43,28.19,30.68,9.53,37.22,1011.72,2036.16,3410.59,3270.99,3549.22,500.01,493.78,33.63,0000 0000 0000 0000 000000
2014-07-01 02:20:22,0.01,0.19,0.00,23.42,28.17,30.67,9.66,37.33,1011.72,2036.41,3410.92,3270.99,3549.70,499.94,493.41,33.67,0000 0000 0000 0000 000000
2014-07-01 02:25:24,0.04,0.19,0.00,23.40,28.15,30.63,9.47,37.16,1011.73,2036.73,3410.91,3271.00,3549.92,500.04,493.78,33.71,0000 0000 0000 0000 000000
2014-07-01 02:30:25,0.01,0.19,0.00,23.39,28.12,30.60,9.59,37.18,1011.72,2036.95,3410.98,3271.07,3549.98,500.05,493.41,33.75,0000 0000 0000 0000 000000
2014-07-01 02:35:26,-0.00,0.19,0.00,23.37,28.10,30.59,9.50,37.23,1011.66,2036.95,3410.98,3271.12,3549.99,499.69,493.42,33.80,0000 0000 0000 0000 000000
2014-07-01 02:40:27,-0.01,0.19,0.00,23.35,28.08,30.54,9.46,37.15,1011.69,2036.99,3411.00,3271.79,3549.99,499.66,493.28,33.84,0000 0000 0000 0000 000000
2014-07-01 02:45:28,0.00,0.19,0.00,23.35,28.06,30.53,9.49,37.11,1011.69,2036.99,3411.04,3271.98,3550.04,499.73,493.45,33.88,0000 0000 0000 0000 000000
2014-07-01 02:50:29,-0.00,0.19,0.00,23.33,28.05,30.51,9.55,37.17,1011.68,2036.99,3411.08,3271.98,3550.09,499.97,493.63,33.92,0000 0000 0000 0000 000000
2014-07-01 02:55:30,-0.02,0.19,0.00,23.32,28.02,30.50,9.50,37.15,1011.73,2036.99,3411.48,3271.99,3550.62,499.86,493.65,33.96,0000 0000 0000 0000 000000
2014-07-01 03:00:31,-0.01,0.19,0.00,23.31,28.00,30.46,9.57,37.15,1011.73,2037.00,3411.78,3272.01,3550.95,500.62,494.50,34.00,0000 0000 0000 0000 000000
2014-07-01 03:05:32,0.00,0.19,0.00,23.31,27.98,30.44,9.54,37.24,1011.73,2037.02,3411.97,3272.06,3550.99,500.09,493.85,34.05,0000 0000 0000 0000 000000
2014-07-01 03:10:34,0.00,0.19,0.00,23.31,27.96,30.40,9.40,37.17,1011.73,2037.09,3411.99,3272.29,3551.01,499.75,493.49,34.09,0000 0000 0000 0000 000000
2014-07-01 03:15:35,0.01,0.19,0.00,23.28,27.95,30.38,9.59,37.27,1011.74,2037.28,3411.99,3272.71,3551.04,500.15,493.90,34.13,0000 0000 0000 0000 000000
2014-07-01 03:20:36,0.01,0.19,0.00,23.28,27.92,30.37,9.68,37.36,1011.75,2037.38,3411.99,3272.87,3551.10,500.23,493.96,34.17,0000 0000 0000 0000 000000
2014-07-01 03:25:37,0.03,0.19,0.00,23.29,27.91,30.36,9.39,37.25,1011.75,2037.84,3411.99,3272.96,3551.59,499.87,493.87,34.21,0000 0000 0000 0000 000000
2014-07-01 03:30:38,-0.00,0.19,0.00,23.27,27.90,30.35,9.56,37.33,1011.76,2037.94,3412.03,3272.99,3551.93,499.54,493.42,34.25,0000 0000 0000 0000 000000
2014-07-01 03:35:39,-0.00,0.19,0.00,23.26,27.87,30.30,9.55,37.30,1011.75,2037.97,3412.09,3272.99,3551.98,499.87,493.67,34.30,0000 0000 0000 0000 000000
2014-07-01 03:40:40,-0.00,0.19,0.00,23.28,27.86,30.27,9.55,37.38,1011.75,2037.99,3412.42,3272.99,3551.99,499.90,493.72,34.34,0000 0000 0000 0000 000000
2014-07-01 03:45:41,0.00,0.19,0.00,23.30,27.85,30.24,9.51,37.28,1011.75,2037.99,3412.44,3273.00,3551.99,500.14,493.88,34.38,0000 0000 0000 0000 000000
2014-07-01 03:50:42,-0.01,0.19,0.00,23.32,27.83,30.22,9.48,37.27,1011.75,2037.99,3412.41,3273.03,3551.99,500.11,493.79,34.42,0000 0000 0000 0000 000000
2014-07-01 03:55:43,-0.00,0.19,0.00,23.34,27.82,30.20,9.57,37.37,1011.76,2037.99,3412.81,3273.05,3551.99,499.88,493.81,34.46,0000 0000 0000 0000 000000
2014-07-01 04:00:44,-0.00,0.19,0.00,23.35,27.80,30.19,9.62,37.30,1011.79,2037.99,3412.79,3273.12,3551.99,500.69,494.58,34.50,0000 0000 0000 0000 000000
2014-07-01 04:05:45,-0.00,0.19,0.00,23.36,27.80,30.18,9.51,37.31,1011.84,2037.99,3412.97,3273.33,3552.01,500.22,494.11,34.54,0000 0000 0000 0000 000000
2014-07-01 04:10:47,-0.01,0.19,0.00,23.37,27.80,30.16,9.54,37.45,1011.94,2038.00,3412.97,3273.61,3552.02,500.39,494.28,34.59,0000 0000 0000 0000 000000
2014-07-01 04:15:47,-0.01,0.19,0.00,23.38,27.78,30.16,9.55,37.24,1012.05,2038.01,3412.99,3273.89,3552.14,500.12,494.02,34.63,0000 0000 0000 0000 000000
2014-07-01 04:20:48,-0.00,0.19,0.00,23.39,27.77,30.16,9.49,37.28,1012.15,2038.02,3412.99,3273.96,3552.24,500.22,494.11,34.67,0000 0000 0000 0000 000000
2014-07-01 04:25:49,-0.00,0.19,0.00,23.42,27.77,30.16,9.48,37.18,1012.13,2038.04,3412.99,3273.96,3552.50,500.14,493.88,34.71,0000 0000 0000 0000 000000
2014-07-01 04:30:51,0.00,0.19,0.00,23.44,27.77,30.15,9.52,37.23,1012.17,2038.06,3412.99,3273.97,3552.74,499.75,493.64,34.75,0000 0000 0000 0000 000000
2014-07-01 04:35:52,0.00,0.19,0.00,23.44,27.77,30.15,9.43,37.22,1012.22,2038.06,3412.99,3273.98,3552.72,499.80,493.53,34.79,0000 0000 0000 0000 000000
2014-07-01 04:40:52,0.01,0.19,0.00,23.45,27.77,30.14,9.48,37.27,1012.21,2038.09,3412.99,3273.98,3552.66,499.92,493.71,34.84,0000 0000 0000 0000 000000
2014-07-01 04:45:54,0.00,0.19,0.00,23.47,27.77,30.15,9.61,37.32,1012.22,2038.10,3412.99,3273.98,3552.67,500.27,493.96,34.88,0000 0000 0000 0000 000000
2014-07-01 04:50:55,0.00,0.19,0.00,23.48,27.77,30.14,9.53,37.50,1012.22,2038.10,3412.98,3273.98,3552.60,499.87,493.58,34.92,0000 0000 0000 0000 000000
2014-07-01 04:55:56,0.01,0.19,0.00,23.48,27.77,30.14,9.51,37.42,1012.22,2038.20,3412.99,3273.98,3552.78,500.39,494.47,34.96,0000 0000 0000 0000 000000
2014-07-01 05:00:57,0.01,0.19,0.00,23.47,27.77,30.14,9.48,37.44,1012.22,2038.31,3412.99,3273.98,3552.80,500.40,494.11,35.00,0000 0000 0000 0000 000000
2014-07-01 05:05:58,-0.02,0.19,0.00,23.48,27.77,30.15,9.57,37.33,1012.21,2038.18,3412.99,3273.98,3552.65,500.45,494.14,35.04,0000 0000 0000 0000 000000
2014-07-01 05:10:59,0.02,0.19,0.00,23.50,27.77,30.15,9.47,37.40,1012.22,2038.24,3412.98,3273.98,3552.81,499.76,493.71,35.08,0000 0000 0000 0000 000000
2014-07-01 05:16:00,-0.00,0.19,0.00,23.51,27.77,30.16,9.48,37.38,1012.22,2038.39,3412.98,3273.98,3552.84,500.03,493.89,35.13,0000 0000 0000 0000 000000
2014-07-01 05:21:01,-0.02,0.19,0.00,23.52,27.77,30.15,9.53,37.48,1012.22,2038.22,3412.99,3273.98,3552.84,500.15,493.83,35.17,0000 0000 0000 0000 000000
2014-07-01 05:26:02,0.04,0.19,0.00,23.52,27.77,30.17,9.50,37.52,1012.22,2038.47,3412.98,3273.97,3552.68,499.79,493.50,35.21,0000 0000 0000 0000 000000
2014-07-01 05:31:03,-0.01,0.19,0.00,23.54,27.79,30.18,9.53,37.43,1012.22,2038.36,3412.95,3273.58,3552.10,500.17,493.83,35.25,0000 0000 0000 0000 000000
2014-07-01 05:36:04,0.01,0.19,0.00,23.54,27.80,30.17,9.46,37.46,1012.22,2038.25,3412.86,3273.46,3552.02,499.83,493.59,35.29,0000 0000 0000 0000 000000
2014-07-01 05:41:05,0.02,0.19,0.00,23.55,27.80,30.18,9.55,37.38,1012.22,2038.21,3412.19,3272.96,3551.57,500.02,493.66,35.33,0000 0000 0000 0000 000000
2014-07-01 05:46:06,0.26,0.20,0.00,23.58,27.80,30.19,9.32,37.31,1012.23,2038.10,3407.08,3269.80,3548.22,499.22,492.88,35.38,0000 0000 0000 0000 000000
2014-07-01 05:51:07,0.01,0.20,0.00,23.58,27.80,30.19,9.62,37.24,1012.22,2038.16,3406.59,3269.63,3548.00,500.46,494.11,35.42,0000 0000 0000 0000 000000
2014-07-01 05:56:09,0.00,0.20,0.00,23.58,27.80,30.19,9.52,37.28,1012.22,2038.10,3406.42,3269.44,3548.00,500.02,493.62,35.46,0000 0000 0000 0000 000000
2014-07-01 06:01:10,0.00,0.20,0.00,23.60,27.82,30.20,9.59,37.36,1012.25,2038.06,3406.32,3269.24,3548.00,500.17,493.62,35.50,0000 0000 0000 0000 000000
2014-07-01 06:06:11,0.00,0.20,0.00,23.60,27.82,30.20,9.47,37.27,1012.26,2038.04,3406.24,3269.14,3547.99,500.18,493.71,35.54,0000 0000 0000 0000 000000
2014-07-01 06:11:12,-0.00,0.20,0.00,23.62,27.82,30.21,9.55,37.34,1012.30,2038.04,3406.32,3269.14,3547.99,500.03,493.59,35.58,0000 0000 0000 0000 000000
2014-07-01 06:16:13,0.00,0.20,0.00,23.64,27.82,30.21,9.48,37.42,1012.36,2038.02,3406.15,3269.06,3547.97,499.89,493.49,35.63,0000 0000 0000 0000 000000
2014-07-01 06:21:14,0.00,0.20,0.00,23.63,27.82,30.22,9.52,37.48,1012.60,2038.01,3406.13,3269.04,3547.95,499.95,493.46,35.67,0000 0000 0000 0000 000000
2014-07-01 06:26:15,0.00,0.20,0.00,23.64,27.84,30.22,9.52,37.40,1012.68,2038.00,3406.07,3269.01,3547.96,500.11,493.83,35.71,0000 0000 0000 0000 000000
2014-07-01 06:31:16,0.00,0.20,0.00,23.64,27.85,30.23,9.44,37.30,1012.70,2038.00,3406.06,3269.02,3547.95,499.71,493.34,35.75,0000 0000 0000 0000 000000
2014-07-01 06:36:17,-0.00,0.20,0.00,23.63,27.85,30.24,9.49,37.39,1012.71,2038.01,3406.04,3269.00,3547.92,499.71,493.41,35.79,0000 0000 0000 0000 000000
2014-07-01 06:41:18,0.01,0.20,0.00,23.65,27.85,30.24,9.55,37.33,1012.70,2038.01,3406.01,3269.00,3547.75,500.26,493.96,35.83,0000 0000 0000 0000 000000
2014-07-01 06:46:19,0.00,0.21,0.00,23.64,27.86,30.25,9.49,37.33,1012.59,2038.00,3406.00,3269.00,3547.44,500.32,494.03,35.87,0000 0000 0000 0000 000000
2014-07-01 06:51:19,0.00,0.21,0.00,23.65,27.87,30.25,9.49,37.39,1012.50,2038.00,3406.00,3268.99,3547.17,499.95,493.41,35.92,0000 0000 0000 0000 000000
2014-07-01 06:56:20,0.00,0.21,0.00,23.65,27.87,30.26,9.46,37.43,1012.61,2038.00,3406.00,3268.99,3547.08,499.82,493.52,35.96,0000 0000 0000 0000 000000
2014-07-01 07:01:21,0.00,0.21,0.00,23.66,27.87,30.27,9.46,37.31,1012.71,2038.00,3405.99,3268.99,3547.05,499.73,493.33,36.00,0000 0000 0000 0000 000000
2014-07-01 07:06:22,0.00,0.21,0.00,23.65,27.87,30.27,9.47,37.38,1012.71,2038.00,3405.96,3268.98,3547.02,500.36,493.99,36.04,0000 0000 0000 0000 000000
2014-07-01 07:11:23,0.00,0.21,0.00,23.67,27.89,30.27,9.53,37.26,1012.71,2038.00,3405.97,3268.97,3547.00,499.68,493.35,36.08,0000 0000 0000 0000 000000
2014-07-01 07:16:24,0.01,0.21,0.00,23.68,27.90,30.28,9.44,37.24,1012.71,2038.00,3405.83,3268.79,3547.00,499.96,493.58,36.12,0000 0000 0000 0000 000000
2014-07-01 07:21:25,0.01,0.21,0.00,23.69,27.90,30.29,9.40,37.22,1012.71,2038.00,3405.65,3268.67,3547.00,499.92,493.57,36.17,0000 0000 0000 0000 000000
2014-07-01 07:26:26,-0.01,0.21,0.00,23.67,27.90,30.29,9.36,37.30,1012.73,2038.00,3405.85,3268.76,3547.00,499.83,493.59,36.21,0000 0000 0000 0000 000000
2014-07-01 07:31:27,0.01,0.21,0.00,23.66,27.90,30.29,9.49,37.25,1012.73,2038.00,3405.65,3268.65,3547.00,500.15,493.81,36.25,0000 0000 0000 0000 000000
2014-07-01 07:36:28,0.01,0.21,0.00,23.66,27.90,30.29,9.47,37.25,1012.73,2038.00,3405.47,3268.53,3546.99,499.84,493.52,36.29,0000 0000 0000 0000 000000
2014-07-01 07:41:29,0.01,0.21,0.00,23.67,27.92,30.31,9.49,37.26,1012.73,2038.00,3405.32,3268.44,3546.98,499.84,493.50,36.33,0000 0000 0000 0000 000000
2014-07-01 07:46:31,0.01,0.21,0.00,23.66,27.92,30.30,9.44,37.27,1012.73,2038.00,3405.14,3268.11,3546.98,500.06,493.95,36.37,0000 0000 0000 0000 000000
2014-07-01 07:51:31,-0.00,0.21,0.00,23.67,27.92,30.30,9.56,37.30,1012.72,2038.00,3405.17,3268.15,3546.98,500.30,494.02,36.41,0000 0000 0000 0000 000000
2014-07-01 07:56:32,0.00,0.21,0.00,23.64,27.92,30.31,9.51,37.25,1012.73,2037.99,3405.11,3268.14,3546.95,500.04,493.88,36.46,0000 0000 0000 0000 000000
2014-07-01 08:01:33,0.00,0.21,0.00,23.59,27.92,30.33,9.43,37.09,1012.72,2037.98,3405.03,3268.03,3546.90,499.79,493.59,36.50,0000 0000 0000 0000 000000
2014-07-01 08:06:35,0.00,0.21,0.00,23.53,27.92,30.34,9.53,37.18,1012.71,2037.98,3405.01,3268.01,3546.83,499.85,493.89,36.54,0000 0000 0000 0000 000000
2014-07-01 08:11:36,0.00,0.21,0.00,23.47,27.92,30.35,9.31,37.16,1012.71,2037.95,3405.01,3268.00,3546.64,499.22,493.21,36.58,0000 0000 0000 0000 000000
2014-07-01 08:16:37,0.00,0.21,0.00,23.47,27.92,30.37,9.58,37.08,1012.71,2037.98,3405.00,3268.02,3546.79,500.17,494.23,36.62,0000 0000 0000 0000 000000
2014-07-01 08:21:38,-0.00,0.21,0.00,23.47,27.92,30.35,9.47,37.03,1012.72,2037.98,3405.02,3268.02,3546.92,499.48,493.56,36.66,0000 0000 0000 0000 000000
2014-07-01 08:26:39,-0.00,0.21,0.00,23.46,27.90,30.34,9.43,37.01,1012.73,2037.99,3405.04,3268.08,3546.97,499.52,493.65,36.71,0000 0000 0000 0000 000000
2014-07-01 08:31:40,0.00,0.21,0.00,23.46,27.90,30.32,9.40,37.01,1012.75,2037.98,3405.05,3268.10,3546.96,499.75,493.86,36.75,0000 0000 0000 0000 000000
2014-07-01 08:36:42,0.00,0.21,0.00,23.46,27.90,30.32,9.59,37.15,1012.84,2037.99,3405.06,3268.07,3546.94,500.18,494.24,36.79,0000 0000 0000 0000 000000
2014-07-01 08:41:43,-0.01,0.21,0.00,23.47,27.89,30.29,9.42,37.03,1012.96,2037.99,3405.05,3268.23,3546.98,499.00,493.19,36.83,0000 0000 0000 0000 000000
2014-07-01 08:46:44,-0.01,0.21,0.00,23.48,27.87,30.28,9.50,37.09,1013.04,2037.99,3405.22,3268.46,3546.99,499.77,493.79,36.87,0000 0000 0000 0000 000000
2014-07-01 08:51:45,0.01,0.21,0.00,23.48,27.87,30.28,9.42,37.13,1013.17,2037.99,3405.14,3268.38,3546.98,499.81,494.21,36.91,0000 0000 0000 0000 000000
2014-07-01 08:56:46,0.00,0.21,0.00,23.47,27.87,30.27,9.57,37.04,1013.20,2037.99,3405.10,3268.40,3546.98,500.22,494.42,36.96,0000 0000 0000 0000 000000
2014-07-01 09:01:47,-0.01,0.21,0.00,23.46,27.87,30.26,9.48,37.09,1013.20,2037.99,3405.16,3268.54,3546.99,499.47,493.68,37.00,0000 0000 0000 0000 000000
2014-07-01 09:06:48,-0.00,0.21,0.00,23.46,27.85,30.26,9.46,37.13,1013.20,2037.99,3405.18,3268.54,3546.99,499.56,493.83,37.04,0000 0000 0000 0000 000000
2014-07-01 09:11:49,-0.01,0.21,0.00,23.48,27.85,30.25,9.51,37.07,1013.20,2037.99,3405.39,3268.84,3546.99,500.44,494.58,37.08,0000 0000 0000 0000 000000
2014-07-01 09:16:50,0.01,0.21,0.00,23.48,27.85,30.23,9.41,37.05,1013.20,2037.99,3405.31,3268.75,3546.99,499.88,494.14,37.12,0000 0000 0000 0000 000000
2014-07-01 09:21:51,-0.00,0.21,0.00,23.48,27.85,30.24,9.49,37.13,1013.20,2037.99,3405.42,3268.88,3546.99,500.26,494.43,37.16,0000 0000 0000 0000 000000
2014-07-01 09:26:52,-0.01,0.21,0.00,23.47,27.84,30.24,9.54,37.08,1013.20,2037.99,3405.44,3268.92,3546.99,500.10,494.25,37.20,0000 0000 0000 0000 000000
2014-07-01 09:31:52,-0.00,0.21,0.00,23.47,27.83,30.23,9.36,37.13,1013.20,2037.99,3405.78,3268.97,3547.00,499.38,493.71,37.25,0000 0000 0000 0000 000000
2014-07-01 09:36:54,0.00,0.21,0.00,23.44,27.82,30.22,9.42,37.16,1013.20,2037.99,3405.92,3268.97,3547.01,499.81,494.01,37.29,0000 0000 0000 0000 000000
2014-07-01 09:41:55,-0.00,0.21,0.00,23.43,27.82,30.22,9.61,37.28,1013.20,2038.00,3405.96,3268.99,3547.01,500.64,494.95,37.33,0000 0000 0000 0000 000000
2014-07-01 09:46:56,0.00,0.21,0.00,23.36,27.82,30.24,9.38,37.12,1013.21,2038.00,3405.94,3268.99,3547.03,499.46,493.81,37.37,0000 0000 0000 0000 000000
2014-07-01 09:51:57,0.00,0.21,0.00,23.30,27.82,30.24,9.57,37.12,1013.22,2038.01,3405.95,3268.99,3547.07,500.10,494.58,37.41,0000 0000 0000 0000 000000
2014-07-01 09:56:58,0.00,0.21,0.00,23.28,27.80,30.24,9.44,37.19,1013.25,2038.01,3405.98,3268.99,3547.08,499.56,494.29,37.45,0000 0000 0000 0000 000000
2014-07-01 10:01:59,0.00,0.21,0.00,23.27,27.80,30.24,9.54,37.29,1013.39,2038.03,3405.98,3268.99,3547.12,500.24,494.93,37.50,0000 0000 0000 0000 000000
2014-07-01 10:07:00,0.00,0.21,0.00,23.27,27.79,30.20,9.49,37.35,1013.54,2038.01,3405.94,3268.99,3547.03,499.92,494.74,37.54,0000 0000 0000 0000 000000
2014-07-01 10:12:01,0.00,0.21,0.00,23.26,27.77,30.21,9.61,37.31,1013.58,2038.02,3405.92,3268.99,3547.08,500.52,495.20,37.58,0000 0000 0000 0000 000000
2014-07-01 10:17:03,-0.01,0.21,0.00,23.26,27.77,30.19,9.63,37.29,1013.60,2038.03,3405.98,3268.99,3547.35,500.40,495.08,37.62,0000 0000 0000 0000 000000
2014-07-01 10:22:04,0.00,0.21,0.00,23.25,27.75,30.17,9.54,37.25,1013.64,2038.09,3405.99,3268.99,3547.82,499.64,494.47,37.66,0000 0000 0000 0000 000000
2014-07-01 10:27:05,-0.00,0.21,0.00,23.24,27.75,30.17,9.31,37.15,1013.64,2038.09,3405.99,3269.01,3547.84,499.33,494.08,37.70,0000 0000 0000 0000 000000
2014-07-01 10:32:06,0.00,0.21,0.00,23.25,27.73,30.16,9.56,37.20,1013.61,2038.12,3405.99,3269.02,3547.90,500.40,494.97,37.75,0000 0000 0000 0000 000000
2014-07-01 10:37:08,0.01,0.21,0.00,23.23,27.72,30.13,9.45,37.28,1013.57,2038.27,3405.99,3269.04,3547.97,499.54,494.31,37.79,0000 0000 0000 0000 000000
2014-07-01 10:42:09,0.02,0.21,0.00,23.21,27.72,30.12,9.62,37.29,1013.49,2038.38,3405.99,3269.13,3547.98,500.21,494.91,37.83,0000 0000 0000 0000 000000
2014-07-01 10:47:10,0.01,0.21,0.00,23.24,27.70,30.11,9.53,37.24,1013.34,2038.67,3406.01,3269.35,3547.99,500.22,494.88,37.87,0000 0000 0000 0000 000000
2014-07-01 10:52:11,0.02,0.21,0.00,23.25,27.70,30.10,9.55,37.20,1013.35,2038.82,3406.00,3269.41,3547.99,500.44,494.91,37.91,0000 0000 0000 0000 000000
2014-07-01 10:57:12,-0.01,0.21,0.00,23.22,27.68,30.10,9.46,37.16,1013.54,2038.88,3406.01,3269.71,3547.99,500.05,494.72,37.95,0000 0000 0000 0000 000000
2014-07-01 11:02:13,0.00,0.21,0.00,23.20,27.67,30.09,9.52,37.22,1013.63,2038.96,3406.01,3269.87,3547.99,500.22,495.18,38.00,0000 0000 0000 0000 000000
2014-07-01 11:07:14,-0.00,0.21,0.00,23.19,27.67,30.08,9.72,37.13,1013.64,2038.97,3406.06,3269.94,3547.99,500.70,495.67,38.04,0000 0000 0000 0000 000000
2014-07-01 11:12:15,0.00,0.21,0.00,23.18,27.65,30.09,9.51,37.11,1013.48,2038.98,3406.12,3269.96,3548.02,499.98,494.93,38.08,0000 0000 0000 0000 000000
2014-07-01 11:17:16,-0.00,0.21,0.00,23.17,27.65,30.07,9.53,37.10,1013.55,2038.98,3406.39,3269.99,3548.08,500.13,495.10,38.12,0000 0000 0000 0000 000000
2014-07-01 11:22:17,-0.00,0.21,0.00,23.17,27.64,30.07,9.61,37.33,1013.64,2038.99,3406.63,3269.99,3548.13,500.35,495.36,38.16,0000 0000 0000 0000 000000
2014-07-01 11:27:18,-0.02,0.21,0.00,23.15,27.62,30.05,9.54,37.23,1013.66,2038.99,3406.89,3269.99,3548.58,499.91,494.99,38.20,0000 0000 0000 0000 000000
2014-07-01 11:32:19,-0.00,0.21,0.00,23.12,27.62,30.04,9.58,37.33,1013.62,2038.99,3406.98,3269.99,3548.82,499.84,494.88,38.24,0000 0000 0000 0000 000000
2014-07-01 11:37:20,0.00,0.21,0.00,23.10,27.61,30.03,9.50,37.34,1013.57,2039.00,3406.98,3270.02,3548.96,499.82,494.87,38.29,0000 0000 0000 0000 000000
2014-07-01 11:42:21,0.00,0.21,0.00,23.10,27.60,30.03,9.59,37.27,1013.62,2039.00,3406.98,3270.01,3548.97,500.55,495.86,38.33,0000 0000 0000 0000 000000
2014-07-01 11:47:23,0.00,0.21,0.00,23.08,27.60,30.02,9.61,37.28,1013.63,2039.00,3406.98,3270.02,3548.99,500.23,495.20,38.37,0000 0000 0000 0000 000000
2014-07-01 11:52:24,0.00,0.21,0.00,23.07,27.57,30.00,9.60,37.35,1013.66,2039.00,3406.99,3270.06,3548.98,500.48,495.49,38.41,0000 0000 0000 0000 000000
2014-07-01 11:57:25,-0.01,0.21,0.00,23.05,27.57,30.01,9.54,37.34,1013.63,2039.02,3406.99,3270.38,3548.99,499.75,494.83,38.45,0000 0000 0000 0000 000000
2014-07-01 12:02:26,-0.00,0.21,0.00,23.02,27.56,29.99,9.57,37.27,1013.51,2039.03,3406.99,3270.63,3548.99,499.87,495.17,38.49,0000 0000 0000 0000 000000
2014-07-01 12:07:27,-0.00,0.21,0.00,23.01,27.55,29.98,9.51,37.33,1013.55,2039.07,3407.00,3270.92,3549.00,499.81,494.87,38.54,0000 0000 0000 0000 000000
2014-07-01 12:12:28,0.02,0.21,0.00,22.99,27.54,29.97,9.53,37.33,1013.49,2039.20,3407.08,3270.99,3549.08,499.67,494.91,38.58,0000 0000 0000 0000 000000
2014-07-01 12:17:29,-0.00,0.21,0.00,22.97,27.52,29.97,9.59,37.27,1013.44,2039.22,3407.11,3270.97,3549.07,500.01,495.19,38.62,0000 0000 0000 0000 000000
2014-07-01 12:22:31,0.02,0.21,0.00,22.96,27.52,29.96,9.54,37.41,1013.29,2039.40,3407.04,3270.98,3549.13,499.78,494.88,38.66,0000 0000 0000 0000 000000
2014-07-01 12:27:32,0.01,0.21,0.00,22.92,27.50,29.94,9.46,37.36,1013.23,2039.61,3407.09,3270.99,3549.39,499.76,495.05,38.70,0000 0000 0000 0000 000000
2014-07-01 12:32:33,0.00,0.21,0.00,22.91,27.50,29.93,9.62,37.34,1013.22,2039.68,3407.12,3270.99,3549.44,500.40,495.49,38.74,0000 0000 0000 0000 000000
2014-07-01 12:37:34,0.01,0.21,0.00,22.90,27.47,29.92,9.48,37.36,1013.22,2039.77,3407.35,3270.99,3549.64,499.81,495.00,38.78,0000 0000 0000 0000 000000
2014-07-01 12:42:35,0.01,0.21,0.00,22.88,27.47,29.90,9.56,37.38,1013.22,2039.90,3407.69,3270.99,3549.89,500.20,495.53,38.83,0000 0000 0000 0000 000000
2014-07-01 12:47:36,0.00,0.21,0.00,22.87,27.45,29.91,9.62,37.33,1013.23,2039.97,3407.93,3271.03,3549.98,500.04,495.26,38.87,0000 0000 0000 0000 000000
2014-07-01 12:52:37,-0.00,0.21,0.00,22.88,27.45,29.90,9.71,37.30,1013.22,2039.97,3407.97,3271.06,3549.99,500.48,495.69,38.91,0000 0000 0000 0000 000000
2014-07-01 12:57:39,-0.00,0.21,0.00,22.85,27.43,29.88,9.43,37.17,1013.21,2039.99,3407.99,3271.19,3549.99,499.12,494.56,38.95,0000 0000 0000 0000 000000
2014-07-01 13:02:40,-0.01,0.21,0.00,22.83,27.42,29.85,9.56,37.09,1013.21,2039.99,3407.99,3271.55,3549.99,499.95,495.09,38.99,0000 0000 0000 0000 000000